Location: Taukkyan
(23.1052°N, 94.0030°E)
Time: 11:26:07
(UTC+00:00)

deb Kosmos-1763 - Pass Details

Date: 06 July 2020
Orbit: 463 x 480 km, 74.0° (Epoch: 14 August)

Event Time Altitude Azimuth Distance (km) Brightness Sun altitude
Exits shadow 21:15:39 75° 35° (NE) 481 4.0 -22.1°
Drops below altitude 10° 21:18:57 10° 16° (NNE) 1,612 7.4 -21.5°
Sets 21:21:03 0° 16° (NNE) 2,490 8.5 -21.1°
